Probability
42 68 87 84 77 74 81 81 81 77 81 81 77 77 77 84 87 87 87 81 81 81 77 81 81 77 74 71 65 65 65 68 71 71 68 74 74 74 71 71 71 65 87
52 68 87 84 81 81 84 84 84 84 84 84 81 77 77 81 81 84 84 77 74 74 74 74 71 65 61 68 65 65 65 58 61 65 65 68 68 74 68 71 74 71 90
58 71 84 84 84 84 81 81 81 81 81 84 77 77 74 77 77 84 84 84 87 81 74 68 65 61 58 61 65 61 58 61 61 61 65 61 61 74 84 68 68 81 77
65 68 74 84 81 81 81 77 77 81 84 74 77 81 74 77 77 84 81 77 71 68 68 68 65 65 65 68 61 61 61 58 65 61 61 48 52 81 77 68 65 65 65
61 71 77 81 81 77 77 74 77 77 74 71 68 71 71 68 71 74 74 71 71 68 61 58 58 58 61 52 55 55 52 52 61 61 35 32 35 77 74 68 65 58 68
58 65 71 74 74 71 71 74 74 81 74 71 71 74 74 68 71 68 61 65 65 65 61 58 52 52 45 55 58 48 52 55 48 32 26 29 55 77 71 65 61 55 68
55 68 71 74 74 71 71 65 68 71 65 61 68 71 68 68 68 61 61 65 65 58 55 55 55 55 61 55 48 55 48 52 52 32 29 39 52 74 71 61 55 65 71
55 61 68 74 74 71 71 68 68 68 65 68 68 71 68 68 68 61 61 58 58 55 52 42 48 55 61 58 52 52 52 52 42 35 35 29 74 74 71 65 68 68 68
55 55 61 68 74 71 74 71 68 65 68 68 68 61 65 68 55 55 52 55 52 52 52 45 48 48 45 45 52 55 55 55 39 32 23 29 61 65 68 65 68 65 68
48 55 42 55 58 58 71 74 74 65 68 68 61 61 61 61 55 52 52 55 48 48 52 48 48 48 45 45 52 52 48 45 29 26 29 42 65 65 65 61 61 71 68
42 42 48 48 58 48 45 61 68 65 68 71 65 61 58 52 45 61 48 58 48 48 45 42 48 48 52 52 52 52 52 32 26 19 23 58 58 61 55 52 58 65 68
42 42 45 45 52 45 45 55 68 58 65 58 58 65 65 68 65 55 61 61 58 55 48 48 55 52 42 39 42 58 42 29 26 23 35 61 65 52 48 52 61 68 71
39 45 48 48 58 58 55 52 58 65 68 65 68 71 71 71 65 61 58 58 58 58 55 58 48 39 35 39 32 35 35 29 26 32 35 61 61 55 45 58 61 58 71
55 52 45 52 58 61 65 58 68 65 68 65 68 68 68 61 65 61 65 58 58 55 52 48 45 35 35 29 19 19 26 32 26 29 32 48 48 42 45 58 52 52 58
55 52 48 52 58 65 68 65 58 68 61 61 68 61 58 61 58 58 55 52 52 52 52 42 35 26 26 26 19 19 19 23 19 23 29 48 52 39 35 39 45 52 55
45 48 52 48 58 61 61 61 61 55 61 58 52 58 61 55 55 58 52 48 48 48 39 35 32 32 29 29 23 19 19 13 16 23 16 32 32 39 39 35 42 48 52
45 48 55 52 58 55 55 52 48 48 52 58 58 52 55 52 55 48 45 52 52 42 42 42 42 39 32 23 23 16 26 19 16 19 16 13 13 29 42 42 48 45 45
42 48 55 39 45 58 52 52 48 48 52 48 55 55 48 52 48 42 39 45 42 45 42 42 39 29 29 26 19 13 16 13 13 13 10 13 16 10 29 35 45 42 42
45 48 45 45 48 55 48 45 45 48 48 39 45 52 42 42 39 45 42 45 45 45 39 32 32 32 26 29 19 19 13 10 19 6 10 13 13 13 13 26 39 45 42
45 55 52 42 39 45 42 45 52 45 42 39 39 39 42 48 42 39 35 45 39 39 35 29 29 29 26 26 10 10 10 13 13 19 16 13 10 10 10 10 19 26 45
45 45 48 42 48 42 42 35 45 42 42 35 29 26 42 45 39 32 29 35 29 32 29 26 29 26 26 23 23 23 16 10 10 16 16 13 13 10 10 16 10 10 6
42 45 42 42 48 48 48 48 42 39 35 29 32 29 32 35 39 19 26 23 26 26 26 29 29 19 19 19 23 19 13 13 16 3 6 13 13 16 19 10 10 13 13
39 42 35 45 48 48 48 45 42 42 32 29 29 26 29 19 19 26 23 19 19 19 23 23 26 16 13 16 23 16 10 6 6 6 3 3 3 10 10 10 10 10 13
32 35 42 45 45 45 45 45 39 32 26 29 23 23 26 16 19 16 13 16 19 19 16 19 13 13 13 13 13 19 19 13 6 6 10 6 6 6 6 3 3 6 10
35 39 35 39 39 35 42 42 42 35 29 26 26 26 32 26 26 13 16 29 19 19 16 10 13 13 16 16 16 13 6 6 6 6 3 3 3 6 6 6 6 6 6
35 35 35 39 35 35 35 32 39 35 23 23 29 23 29 32 26 19 23 32 26 23 19 19 19 16 13 16 10 10 10 3 3 3 3 3 3 3 6 6 6 10 6
Height
5883 5883 5882 5882 5882 5881 5881 5881 5881 5881 5880 5880 5880 5880 5880 5880 5879 5879 5879 5879 5879 5878 5878 5878 5878 5878 5878 5878 5878 5878 5878 5878 5878 5878 5879 5879 5879 5880 5880 5881 5881 5882 5883
5882 5881 5881 5881 5880 5880 5880 5880 5880 5879 5879 5879 5879 5878 5878 5878 5878 5877 5877 5877 5877 5877 5877 5876 5876 5876 5876 5876 5876 5876 5876 5876 5877 5877 5877 5877 5878 5878 5878 5879 5880 5881 5881
5880 5880 5880 5879 5879 5878 5878 5878 5878 5877 5877 5877 5877 5877 5876 5876 5876 5876 5876 5875 5875 5875 5875 5874 5874 5874 5874 5874 5874 5874 5874 5875 5875 5875 5875 5875 5876 5876 5876 5877 5878 5879 5879
5879 5878 5878 5877 5877 5876 5876 5876 5876 5875 5875 5875 5875 5875 5875 5874 5874 5874 5873 5873 5873 5873 5872 5872 5872 5872 5872 5872 5872 5872 5872 5872 5872 5873 5873 5873 5874 5874 5874 5875 5875 5876 5877
5877 5876 5876 5875 5875 5874 5873 5873 5873 5873 5873 5873 5872 5872 5872 5872 5872 5871 5871 5871 5870 5870 5870 5870 5870 5870 5869 5869 5869 5869 5869 5869 5870 5870 5870 5871 5871 5872 5872 5872 5873 5874 5874
5875 5874 5873 5873 5872 5872 5871 5871 5871 5870 5870 5870 5870 5870 5870 5869 5869 5869 5868 5868 5867 5867 5867 5867 5867 5866 5866 5867 5867 5866 5866 5866 5867 5867 5868 5868 5869 5869 5869 5869 5870 5870 5871
5873 5872 5871 5870 5870 5870 5869 5869 5868 5868 5867 5867 5867 5867 5867 5866 5866 5865 5865 5864 5864 5864 5864 5864 5864 5863 5863 5863 5863 5863 5863 5863 5863 5864 5865 5865 5865 5866 5866 5866 5867 5867 5868
5870 5869 5868 5868 5867 5867 5867 5866 5866 5865 5865 5864 5864 5864 5863 5863 5863 5862 5862 5861 5861 5861 5860 5860 5860 5860 5860 5860 5860 5860 5860 5860 5860 5860 5861 5861 5862 5862 5862 5862 5863 5863 5864
5867 5866 5866 5865 5864 5864 5863 5863 5862 5862 5861 5861 5860 5860 5860 5859 5859 5858 5858 5858 5857 5857 5857 5857 5856 5856 5856 5856 5856 5856 5856 5856 5856 5857 5857 5857 5857 5857 5858 5858 5858 5859 5859
5864 5863 5862 5862 5861 5861 5860 5859 5859 5859 5858 5857 5857 5856 5856 5855 5855 5855 5854 5854 5854 5853 5853 5853 5852 5852 5852 5851 5852 5852 5852 5852 5852 5853 5853 5853 5853 5852 5853 5853 5853 5854 5854
5861 5859 5857 5858 5858 5857 5856 5855 5855 5855 5854 5853 5853 5852 5851 5851 5851 5851 5850 5850 5849 5849 5849 5848 5848 5847 5847 5847 5847 5847 5847 5846 5847 5847 5847 5848 5848 5847 5848 5848 5848 5849 5849
5857 5857 5855 5854 5854 5853 5852 5851 5851 5850 5850 5849 5848 5848 5847 5847 5846 5846 5846 5845 5845 5844 5844 5843 5843 5843 5843 5843 5842 5842 5841 5840 5841 5842 5842 5842 5842 5842 5842 5843 5843 5843 5844
5854 5853 5850 5851 5850 5849 5848 5847 5847 5846 5845 5845 5844 5843 5843 5842 5842 5841 5841 5841 5840 5840 5839 5839 5838 5838 5838 5837 5837 5836 5835 5835 5835 5835 5836 5836 5836 5836 5836 5837 5837 5838 5838
5851 5850 5848 5848 5846 5845 5844 5843 5842 5842 5841 5840 5839 5839 5838 5838 5838 5837 5837 5836 5835 5835 5834 5833 5833 5833 5832 5831 5830 5830 5829 5829 5829 5829 5829 5829 5830 5830 5830 5830 5831 5831 5832
5848 5847 5845 5844 5842 5841 5839 5838 5837 5837 5836 5836 5835 5834 5833 5833 5833 5832 5831 5831 5830 5830 5829 5828 5828 5827 5826 5825 5824 5823 5823 5823 5823 5822 5822 5822 5823 5823 5823 5824 5825 5826 5827
5844 5843 5841 5840 5838 5837 5835 5834 5833 5832 5831 5831 5830 5829 5829 5828 5828 5827 5827 5826 5825 5824 5824 5823 5822 5821 5820 5819 5818 5818 5817 5816 5816 5816 5815 5815 5816 5817 5817 5817 5818 5819 5820
5841 5839 5837 5835 5834 5833 5831 5830 5828 5827 5826 5825 5824 5824 5824 5823 5822 5822 5821 5821 5820 5819 5818 5817 5816 5815 5814 5813 5812 5811 5810 5810 5810 5809 5809 5808 5809 5810 5811 5811 5812 5813 5814
5837 5836 5834 5832 5830 5828 5826 5824 5823 5821 5820 5819 5819 5818 5818 5817 5817 5817 5816 5815 5814 5813 5812 5811 5810 5808 5807 5806 5806 5805 5804 5803 5803 5803 5803 5802 5802 5803 5804 5804 5805 5806 5807
5834 5832 5830 5828 5826 5824 5821 5819 5817 5815 5813 5812 5812 5812 5812 5812 5812 5811 5811 5810 5809 5808 5807 5805 5804 5802 5801 5800 5799 5798 5798 5797 5797 5796 5796 5796 5796 5796 5797 5798 5798 5799 5800
5831 5829 5827 5824 5822 5819 5817 5814 5812 5810 5808 5806 5806 5806 5806 5807 5806 5806 5806 5805 5804 5803 5801 5800 5798 5796 5795 5794 5792 5792 5791 5791 5790 5790 5790 5789 5789 5789 5790 5790 5791 5792 5793
5827 5825 5823 5821 5818 5815 5812 5810 5808 5806 5804 5803 5802 5802 5802 5802 5801 5801 5800 5799 5798 5797 5795 5794 5792 5791 5789 5788 5786 5786 5785 5784 5783 5783 5783 5782 5782 5782 5782 5783 5784 5784 5785
5824 5822 5819 5817 5814 5811 5809 5806 5804 5803 5801 5800 5798 5798 5797 5797 5796 5795 5794 5793 5792 5791 5789 5788 5786 5785 5783 5781 5780 5779 5779 5779 5777 5776 5776 5775 5775 5775 5775 5775 5776 5776 5777
5821 5818 5816 5814 5811 5808 5806 5803 5801 5799 5797 5796 5795 5794 5793 5792 5791 5790 5789 5788 5787 5785 5784 5782 5780 5779 5777 5776 5774 5773 5772 5771 5771 5770 5768 5768 5767 5767 5767 5767 5768 5769 5770
5818 5816 5813 5810 5808 5805 5803 5800 5798 5796 5794 5792 5791 5790 5788 5787 5786 5785 5784 5783 5781 5780 5778 5777 5775 5773 5771 5770 5768 5766 5765 5764 5763 5763 5762 5761 5760 5759 5759 5759 5760 5761 5762
5815 5812 5810 5808 5805 5803 5800 5798 5795 5793 5790 5789 5787 5786 5784 5783 5782 5780 5779 5778 5776 5775 5773 5772 5770 5767 5765 5764 5762 5760 5759 5757 5756 5755 5755 5754 5752 5752 5752 5752 5752 5753 5754
5812 5810 5808 5805 5803 5800 5798 5795 5792 5789 5787 5785 5784 5782 5781 5779 5777 5776 5774 5773 5772 5770 5768 5767 5765 5762 5760 5758 5756 5753 5752 5751 5750 5748 5747 5746 5745 5744 5744 5744 5745 5746 5746
Wind_Speed
8 8 8 9 9 9 9 9 9 9 9 9 9 9 9 9 9 9 9 10 10 10 10 10 9 9 8 8 8 9 9 9 9 9 8 9 9 9 8 8 9 9 9
10 10 10 10 10 10 10 9 10 10 11 10 10 10 10 10 10 10 11 11 11 11 11 10 10 10 10 9 9 9 10 10 10 10 10 10 10 10 10 9 10 10 11
12 12 12 12 12 12 11 11 11 11 11 11 11 11 11 12 12 12 12 12 12 12 12 11 11 11 11 10 10 10 11 11 11 11 11 11 11 11 11 11 11 11 11
13 13 13 13 13 12 13 13 12 11 12 12 13 13 13 13 13 13 13 13 13 14 13 13 12 12 11 11 11 11 12 12 12 13 12 12 12 13 13 13 12 12 12
14 14 14 13 13 12 12 12 13 13 13 13 14 14 14 14 14 14 14 15 14 14 14 13 13 13 13 13 12 12 12 13 13 13 13 13 13 13 14 14 14 14 14
14 14 14 14 14 13 13 13 13 14 15 15 15 15 15 15 15 15 15 16 15 15 15 15 14 14 14 13 13 13 13 14 14 14 14 14 14 15 15 15 15 15 15
15 15 15 15 15 14 15 15 15 15 16 16 16 16 16 16 17 17 16 16 16 16 16 15 15 15 15 15 14 14 15 15 15 15 15 15 16 16 17 17 17 17 17
16 16 15 15 15 16 16 16 16 16 17 17 17 17 16 16 17 17 17 17 18 18 17 16 16 16 16 16 16 16 16 17 17 16 16 16 17 18 18 19 18 19 20
17 17 16 16 16 16 17 18 17 17 17 17 18 17 17 18 18 18 18 18 18 19 19 19 18 17 17 17 18 17 18 18 18 18 17 17 17 18 19 20 20 20 21
17 18 17 17 18 18 18 18 19 19 19 18 18 19 19 19 19 18 18 19 19 20 20 20 20 19 19 18 18 19 19 19 20 19 19 20 19 20 20 20 21 21 22
17 18 18 18 19 19 19 19 19 19 19 19 19 19 20 19 19 19 19 19 19 20 20 20 20 20 20 20 21 21 22 21 22 21 21 21 21 21 21 21 22 22 23
18 18 18 18 19 19 19 20 21 20 20 20 20 20 20 20 20 19 19 20 20 20 20 20 20 21 22 22 22 23 23 24 23 22 23 23 23 22 22 22 23 23 23
18 19 18 18 19 20 20 21 20 20 21 21 21 21 20 19 19 19 19 19 19 20 20 20 21 21 22 22 23 23 23 24 24 24 24 24 24 24 23 23 23 23 23
18 19 20 19 20 20 21 22 21 20 21 21 21 21 20 20 19 19 20 20 20 20 20 21 21 21 22 22 22 23 24 24 24 26 25 25 26 25 24 24 24 24 24
18 19 19 19 19 20 20 20 20 21 21 21 20 20 20 21 20 19 19 20 20 20 20 21 21 21 22 21 22 23 24 25 25 25 26 27 26 26 25 25 24 25 25
19 18 19 19 19 20 21 20 20 21 22 21 21 21 21 21 21 20 19 19 20 21 21 22 23 23 23 23 24 24 25 25 25 24 25 26 26 26 26 26 25 26 26
19 19 19 20 21 21 21 21 22 22 22 21 21 21 22 22 22 21 20 20 21 21 22 23 24 24 24 24 24 25 25 25 24 24 24 25 25 26 25 26 26 27 27
19 20 20 21 22 23 22 22 22 23 23 23 22 22 22 23 22 21 20 20 21 22 22 23 24 24 24 24 24 25 24 24 24 24 24 24 25 26 26 26 26 26 27
18 19 19 21 22 22 22 22 23 23 23 23 22 22 21 21 21 21 21 21 21 22 23 23 23 23 24 24 25 24 24 24 24 24 24 24 24 25 26 26 26 26 27
17 18 19 20 21 21 22 22 22 21 21 21 21 21 21 20 21 21 21 21 22 23 23 23 23 22 23 23 24 24 24 25 25 24 24 24 24 25 26 26 27 27 28
17 18 18 20 21 20 20 20 20 19 19 20 21 20 21 21 21 21 21 22 22 23 22 23 23 23 23 23 23 23 23 24 24 24 25 25 25 26 27 26 28 28 28
17 18 19 20 19 19 19 19 19 19 20 20 19 20 21 21 22 22 22 22 22 22 23 23 23 24 23 23 23 23 22 22 23 24 25 26 26 27 27 27 28 28 28
18 19 19 19 18 18 19 20 19 18 19 20 19 19 20 21 22 22 22 21 21 22 22 23 23 23 23 23 24 24 23 23 23 24 25 26 26 27 27 27 28 28 28
18 19 20 18 18 19 19 19 18 19 19 19 18 19 20 20 20 20 20 20 21 21 22 23 23 24 24 24 24 23 24 24 25 25 24 25 26 27 27 28 28 29 29
18 19 18 17 18 18 18 18 19 19 20 19 18 19 19 18 19 19 20 20 21 22 22 23 22 22 22 23 23 23 24 25 25 26 25 25 26 27 27 28 28 28 28
17 17 17 17 18 18 18 18 19 19 19 18 18 19 18 19 19 19 19 20 21 22 22 22 22 22 22 23 24 23 23 24 24 26 26 26 26 26 26 27 27 28 28
Wind_Direction
282 287 283 276 273 275 272 266 264 264 263 262 261 261 261 262 261 258 257 256 255 255 257 259 260 258 258 259 261 262 263 263 265 264 261 262 262 258 255 258 255 252 251
285 286 285 277 273 270 269 269 269 266 264 263 264 265 264 263 261 260 260 261 259 259 260 260 260 260 260 261 263 264 265 266 265 265 265 265 263 259 258 258 257 253 251
285 285 286 278 275 273 269 269 270 269 266 263 264 267 267 265 263 265 265 265 263 262 262 263 263 262 261 261 262 264 265 266 266 265 266 266 262 257 256 257 257 255 253
287 286 286 285 281 278 272 270 270 269 269 267 266 268 270 269 267 267 268 268 267 267 266 265 265 264 263 263 262 262 264 267 269 267 266 266 263 259 255 255 255 255 255
288 288 285 287 284 281 275 271 272 271 272 270 269 269 270 270 269 269 270 270 269 269 267 265 265 265 264 264 263 262 264 266 268 269 267 265 263 262 257 256 256 256 256
285 285 285 283 281 280 278 277 274 273 274 273 272 271 271 271 271 269 269 269 268 268 267 266 265 267 266 264 264 264 264 265 266 267 269 268 266 265 259 257 257 257 257
283 283 283 280 278 280 280 279 278 277 276 274 273 273 273 272 272 271 270 269 269 267 267 267 266 265 265 265 266 266 267 267 266 266 268 269 267 267 262 261 259 257 257
283 283 282 282 283 280 281 282 281 281 279 276 275 274 273 272 275 275 272 271 270 270 269 268 270 270 272 267 265 266 267 267 266 266 268 270 267 265 262 261 262 259 256
283 282 281 283 284 285 283 282 282 283 281 278 275 274 274 275 277 279 275 271 270 269 269 270 271 271 270 268 265 265 267 267 267 268 269 269 268 269 266 262 261 261 259
288 285 281 283 285 286 285 281 281 282 281 280 276 273 274 277 277 277 277 275 273 271 270 270 272 272 273 271 267 266 268 267 266 268 270 269 268 268 267 265 262 261 260
292 290 285 286 286 286 284 280 280 280 281 281 280 278 278 278 278 279 278 277 275 274 273 271 272 272 275 274 270 270 270 268 268 268 267 267 266 266 266 266 263 261 260
290 289 286 288 287 286 285 284 282 281 281 282 282 283 283 282 281 283 281 280 277 276 275 275 275 275 276 275 274 274 271 271 268 268 268 267 266 267 267 265 263 260 260
289 290 288 291 289 285 286 286 285 286 285 283 282 283 285 284 283 285 285 284 282 280 279 280 280 280 278 276 275 275 274 271 269 269 269 268 266 266 264 263 262 259 259
291 292 292 292 292 290 289 286 285 286 285 285 283 285 284 283 284 286 288 288 286 286 284 282 280 279 279 279 277 275 276 272 271 271 270 269 266 265 264 263 261 260 259
292 293 292 294 292 290 291 290 289 286 284 284 282 285 285 286 285 285 287 288 288 288 287 286 284 282 282 282 281 280 281 278 276 273 270 269 266 264 263 263 260 260 259
292 293 291 294 293 292 290 290 289 287 285 282 283 283 285 286 284 285 287 287 287 288 286 285 285 285 284 283 283 282 282 281 277 274 272 268 267 265 263 262 261 260 260
292 295 294 296 295 294 291 290 290 288 286 284 282 282 284 286 284 284 285 287 288 288 287 286 287 286 284 284 284 285 283 279 277 277 275 270 268 265 263 263 262 262 260
293 296 295 295 296 295 294 292 291 290 288 285 281 280 283 285 285 285 286 288 289 290 289 288 287 287 286 286 285 284 282 279 278 279 279 275 270 267 265 265 264 262 260
297 298 299 297 297 298 295 294 294 293 289 285 282 280 282 283 284 285 285 286 289 291 291 291 290 290 289 289 287 285 282 280 279 278 277 275 272 269 267 266 265 263 261
297 299 299 299 300 300 298 297 296 296 292 287 284 282 282 283 285 285 285 288 292 293 293 293 290 291 291 292 290 287 284 281 279 277 277 275 274 272 269 267 266 264 263
299 301 303 303 302 302 302 300 296 295 294 293 290 287 286 285 285 286 288 291 293 295 294 293 291 292 292 293 291 288 286 284 280 277 276 275 275 273 272 271 269 265 264
302 305 307 307 306 306 307 304 299 296 295 295 294 292 291 289 288 288 292 295 294 295 294 294 294 296 295 293 291 290 288 286 283 281 277 275 273 273 272 272 271 268 264
303 306 309 311 310 309 308 308 303 302 301 301 299 297 295 292 290 291 295 295 297 295 295 296 295 295 295 293 292 292 290 287 286 283 280 277 274 273 273 272 270 268 266
305 306 308 309 311 310 312 311 308 306 305 303 300 297 298 295 291 291 294 293 295 297 298 299 298 297 295 293 292 293 291 289 287 285 282 280 277 274 274 272 271 268 267
306 307 308 311 314 313 314 313 310 309 306 304 302 300 298 296 294 294 294 293 296 300 300 301 301 301 298 294 292 293 292 291 288 287 285 284 280 277 273 271 270 268 268
310 310 313 314 315 315 314 315 313 310 308 305 302 301 298 297 297 297 296 297 299 300 300 301 301 302 299 295 294 294 294 294 292 290 289 287 285 282 276 271 269 268 269